GFSFLT2_prec_cthk_057.txt.gz
RH
78 84 88 94 97 92 94 75 53 43 43 49 47 49 47 48 46 51 56 53 52 48 41 40 40 39 39 38 34 29 29 22
88 94 94 93 96 95 87 71 49 43 48 46 51 55 55 55 55 57 57 56 49 46 45 43 39 35 34 32 30 28 24 22
86 86 94 92 93 81 85 72 54 45 52 58 65 62 68 62 61 63 60 54 52 53 52 43 39 36 31 31 26 25 23 22
86 81 87 92 87 80 80 74 65 66 66 67 67 69 75 67 70 70 61 57 58 54 46 48 47 36 31 29 24 24 23 23
75 77 87 85 89 80 79 79 72 70 74 75 70 75 77 75 76 70 64 64 59 50 55 56 52 39 30 28 26 25 24 22
73 75 82 88 88 83 85 83 82 74 71 69 75 78 81 79 74 70 71 66 62 61 61 59 52 41 29 29 27 24 25 24
76 79 79 85 92 92 90 85 85 77 76 78 81 79 82 77 72 74 70 68 66 62 60 61 48 43 31 31 28 25 27 29
84 82 90 86 91 95 88 88 87 87 83 84 82 82 84 76 75 71 69 65 62 62 65 58 45 42 39 29 29 29 30 32
87 84 91 96 90 88 86 84 85 87 91 87 83 86 85 80 76 71 67 64 63 62 61 50 46 44 41 34 28 30 34 36
90 90 91 90 84 89 87 88 92 91 89 90 83 82 82 80 75 68 66 63 61 54 52 49 47 43 39 37 33 33 37 41
74 84 88 86 90 90 90 92 95 95 90 81 78 79 70 67 65 66 71 76 64 52 50 51 49 43 38 38 42 43 43 46
56 62 72 78 81 82 85 89 88 82 79 79 68 64 64 59 58 68 79 82 60 52 51 51 49 46 47 50 52 52 50 51
44 51 57 55 58 60 63 63 64 66 68 64 60 59 60 63 68 76 72 64 53 52 51 55 58 58 61 60 59 60 57 57
40 44 45 46 46 47 47 48 51 51 50 49 56 62 71 73 67 68 70 58 57 61 61 66 67 67 68 67 66 67 69 67
37 41 43 42 40 39 40 44 44 46 45 52 65 67 73 64 53 57 56 59 65 66 66 67 71 72 73 75 75 73 73 74
35 37 40 43 46 48 47 47 48 45 44 45 51 57 58 56 61 62 61 64 66 69 69 74 78 83 83 84 83 85 81 79
43 39 45 44 47 51 55 62 62 58 54 54 52 62 67 70 68 65 65 68 72 76 79 83 87 93 92 92 88 85 90 85
52 51 50 49 51 51 60 68 70 71 63 64 64 64 71 73 79 78 76 76 81 84 88 89 94 95 93 92 88 88 90 96
50 52 53 56 56 58 60 65 77 76 79 70 71 76 79 76 78 81 81 83 89 90 92 90 88 98 90 92 89 88 92 95
47 50 53 56 59 62 69 72 73 81 75 81 78 76 77 78 87 85 91 90 88 91 94 89 73 85 89 91 93 96 99 97

GFSFLT2_prec_cthk_060.txt.gz
RH
81 87 91 93 92 88 95 77 51 48 58 60 54 50 46 43 43 43 47 47 46 47 48 45 43 43 42 37 32 28 24 20
82 86 92 95 92 92 93 84 77 66 63 55 57 49 48 45 48 51 57 56 51 47 48 47 45 38 36 31 29 26 24 22
77 85 95 95 98 95 94 80 68 54 57 57 55 58 51 53 56 59 62 59 54 47 43 47 47 37 32 29 26 24 23 20
77 79 78 86 95 92 84 80 65 61 60 64 59 57 59 59 62 65 68 64 55 49 49 46 44 37 31 28 26 25 22 20
71 73 80 85 94 90 81 71 67 61 68 67 67 69 67 64 65 68 72 67 60 58 53 47 45 41 32 28 26 24 23 21
75 76 81 81 89 85 79 68 67 71 74 67 75 75 72 73 72 74 73 70 67 60 56 57 58 44 30 28 27 25 24 24
76 77 79 83 83 78 85 71 73 73 72 74 76 76 76 78 74 76 74 72 67 62 61 62 60 48 32 29 27 27 27 28
74 77 83 83 86 91 81 77 83 78 72 70 76 79 80 79 75 74 75 72 72 69 64 64 59 44 38 31 29 28 30 32
80 75 79 89 83 90 85 90 87 77 81 75 77 79 80 76 74 74 71 70 68 63 68 65 52 43 41 36 30 28 30 34
88 92 89 86 91 88 88 92 85 84 83 79 78 82 79 75 76 72 67 70 64 67 63 57 45 43 41 38 35 32 35 41
81 89 89 94 93 94 91 92 88 85 83 84 82 81 78 78 74 75 68 64 67 62 53 47 44 42 40 39 39 44 47 47
66 80 89 91 91 91 92 92 90 85 85 86 82 82 80 79 74 69 68 73 73 56 50 49 52 52 50 48 47 51 54 54
52 59 60 68 75 83 87 89 88 91 89 86 82 78 76 69 63 67 75 75 76 57 56 58 58 60 59 59 59 61 64 64
45 48 48 50 56 59 66 73 80 81 77 71 70 70 64 62 64 68 68 75 66 59 63 62 64 64 67 66 67 67 70 71
38 40 44 47 50 52 54 58 60 59 60 60 62 66 67 70 69 64 60 66 59 65 63 63 67 68 74 78 77 78 78 81
36 38 40 42 47 51 47 46 47 45 47 50 56 54 58 60 53 58 60 59 59 61 64 69 72 75 84 85 86 85 86 80
38 41 42 41 44 44 48 50 50 45 42 42 40 41 46 57 54 55 58 62 60 65 74 82 82 85 85 94 96 90 85 88
45 45 46 43 44 42 46 49 52 55 51 45 40 42 47 54 63 67 70 75 74 74 86 88 91 91 91 94 92 91 86 86
48 47 46 46 46 49 51 53 59 64 65 67 64 61 59 61 67 71 73 78 83 92 93 88 90 90 89 73 83 86 83 86
47 48 44 44 47 51 56 61 66 75 77 79 78 73 74 77 79 78 84 95 95 94 86 88 83 74 74 78 78 67 82 83

GFSFLT2_prec_cthk_063.txt.gz
RH
78 85 95 98 99 98 94 93 82 62 48 50 49 47 47 45 44 42 43 44 44 44 46 45 42 40 39 41 37 30 25 20
89 97 94 83 87 98 89 90 84 71 53 51 49 49 51 50 46 43 43 45 47 48 48 45 44 42 44 38 33 27 23 21
93 96 92 88 93 96 93 88 86 77 73 59 51 56 54 51 49 47 49 51 53 52 49 50 46 43 37 33 28 26 23 22
88 87 90 92 86 88 95 91 91 90 84 81 70 56 51 53 58 56 55 53 53 54 50 46 45 43 37 30 28 25 23 21
79 83 88 86 83 81 86 89 89 92 93 82 61 60 56 60 62 59 58 57 57 58 52 47 48 45 37 32 27 25 22 20
80 86 93 87 89 90 92 83 78 79 78 83 72 63 63 64 62 63 63 64 64 62 58 53 50 46 36 32 27 24 21 23
77 79 82 88 95 91 90 74 66 66 71 79 70 66 68 68 69 69 70 65 66 66 66 58 60 56 39 31 26 24 23 26
82 96 83 93 88 90 84 80 77 76 69 79 72 67 69 74 75 75 74 69 70 68 62 62 60 57 43 32 28 26 26 28
89 92 98 83 92 89 80 87 90 73 76 80 74 73 74 78 79 76 75 74 73 67 66 66 61 57 43 38 32 28 27 29
85 83 84 97 92 88 82 94 82 83 87 85 80 79 81 80 82 77 75 75 71 71 69 66 62 56 47 42 39 33 29 33
77 85 87 91 92 96 89 95 86 83 93 85 84 84 84 83 80 74 75 69 68 67 67 64 62 54 45 42 39 38 41 43
70 84 93 92 94 94 92 90 89 95 89 86 86 85 85 81 76 75 72 69 70 68 65 62 59 55 55 53 50 49 48 50
54 70 82 90 91 98 98 95 95 95 86 86 87 84 83 82 77 75 69 68 68 63 58 55 57 60 61 62 62 59 61 61
44 50 60 64 72 82 88 95 93 93 89 90 89 85 83 82 79 72 68 69 75 63 56 59 65 68 66 65 65 66 68 69
37 41 44 47 54 63 76 80 82 82 84 83 81 80 81 78 74 71 71 71 71 68 61 66 68 67 67 70 69 74 73 75
34 38 44 44 46 48 52 57 64 73 76 77 77 75 71 70 68 69 69 66 65 61 64 64 65 71 78 79 79 78 82 82
33 36 37 38 43 49 50 51 50 53 55 61 64 68 72 75 67 62 59 56 61 66 64 65 71 80 87 89 87 88 86 89
39 41 41 39 37 40 47 52 54 53 51 49 50 54 60 62 56 52 52 56 60 62 65 73 82 89 94 97 92 89 84 90
40 41 41 42 42 42 43 47 51 53 58 57 52 47 46 48 52 55 62 66 71 78 80 85 93 95 92 87 83 85 92 85
37 40 42 40 41 44 45 47 53 59 66 64 63 59 54 55 55 58 65 73 77 81 92 97 90 92 89 77 70 77 88 67

GFSFLT2_prec_cthk_066.txt.gz
RH
70 75 83 86 81 84 92 98 84 65 50 48 46 45 46 43 41 43 41 45 49 46 45 44 40 36 34 35 35 34 33 25
79 92 97 88 89 95 98 95 92 84 70 62 46 45 43 46 47 47 49 48 48 47 44 44 42 39 36 36 39 37 25 22
84 90 97 96 98 95 97 98 94 77 67 59 47 47 46 48 49 56 53 48 51 52 51 49 47 42 39 41 37 29 23 21
93 90 98 98 93 90 92 96 96 89 74 64 50 48 47 45 60 56 54 52 53 54 52 54 51 48 42 36 34 28 24 21
87 95 98 95 92 86 92 93 93 89 81 57 54 52 49 61 56 55 55 56 55 55 56 54 52 48 41 38 32 28 26 23
73 82 84 96 91 85 88 89 90 90 89 72 62 59 73 65 55 53 58 57 56 57 58 56 53 47 47 37 34 30 25 23
86 80 91 96 93 92 93 87 89 88 88 84 72 73 63 65 62 63 62 61 62 63 62 60 58 55 50 41 33 28 25 24
83 74 94 92 95 95 93 93 91 92 92 83 77 68 70 72 70 72 69 70 72 72 69 68 65 62 55 45 35 28 25 26
79 80 83 85 92 93 98 93 93 90 90 85 79 70 73 75 77 74 74 75 77 74 73 69 66 64 61 48 40 30 27 27
72 97 98 99 96 93 91 91 74 87 92 89 85 77 79 81 79 80 79 78 79 77 73 70 67 64 63 53 41 37 30 29
65 82 91 97 93 87 92 86 88 92 94 89 88 80 82 82 83 81 79 79 80 78 76 73 70 67 61 46 42 39 35 38
59 81 85 91 88 94 95 93 94 87 92 90 90 85 84 84 86 84 83 80 79 77 75 74 67 65 65 55 49 47 47 46
49 69 91 90 92 93 96 93 93 93 94 92 91 88 88 88 87 86 85 80 77 74 73 68 69 72 64 63 59 55 58 60
38 48 66 80 89 94 91 94 97 96 93 92 92 89 89 89 85 85 84 81 75 76 69 68 70 67 63 61 60 60 60 63
36 43 49 55 66 82 93 96 96 95 91 93 91 89 90 90 86 85 81 76 77 75 67 60 62 66 67 67 64 62 65 71
34 40 46 49 50 55 65 75 83 87 91 95 91 90 89 88 90 92 89 79 78 78 63 59 63 66 70 70 71 75 80 78
29 34 39 42 48 52 52 56 64 77 85 82 79 82 84 85 84 82 79 76 74 74 73 68 67 69 69 73 78 83 87 91
35 38 40 42 40 43 50 56 57 58 61 64 69 73 74 74 73 74 74 72 70 71 68 68 73 75 78 80 84 89 91 91
34 38 40 42 40 42 45 52 56 57 57 52 53 59 64 69 71 73 68 66 65 61 64 65 70 80 91 96 98 91 94 92
33 37 40 40 42 44 44 48 54 58 61 66 62 55 54 57 59 59 60 62 58 55 61 69 81 91 94 92 92 91 85 75

GFSFLT2_prec_cthk_069.txt.gz
RH
83 87 83 76 76 80 80 85 88 86 78 72 53 46 51 50 42 38 40 43 45 45 43 41 37 35 33 30 28 32 31 29
82 89 89 91 86 85 88 90 96 92 82 67 57 44 49 50 44 41 43 48 49 53 47 42 38 38 38 35 34 33 34 32
84 90 94 95 92 97 96 97 97 94 83 75 55 51 51 49 46 44 50 53 56 54 47 48 46 42 39 37 35 35 34 26
88 90 96 94 99 99 99 97 96 91 90 74 59 50 49 49 51 51 53 60 58 54 51 50 47 46 40 41 40 36 28 23
85 90 92 93 95 92 96 93 95 92 94 73 65 62 56 53 56 56 63 58 57 53 51 54 50 51 48 51 39 34 31 25
69 79 89 98 96 98 94 96 97 96 91 77 68 59 56 55 57 65 59 55 59 59 59 52 55 53 52 45 38 36 31 27
63 75 89 96 93 96 96 96 92 92 86 72 62 60 55 59 63 64 62 60 57 60 56 57 58 55 50 46 43 36 31 32
59 84 81 92 96 96 97 95 91 89 85 73 69 65 68 63 72 66 63 62 60 60 63 65 62 59 56 52 45 36 36 30
61 93 80 87 96 95 96 93 94 91 88 80 74 75 73 73 67 66 66 67 68 70 73 73 70 66 60 56 47 39 30 31
56 69 80 85 90 94 99 98 97 96 90 84 81 82 75 74 71 71 72 74 75 76 75 76 74 69 63 63 54 44 39 30
47 65 90 94 98 96 99 97 98 98 90 87 82 77 77 81 79 79 78 79 80 79 77 78 75 71 67 66 59 47 43 34
43 63 87 97 97 97 97 93 98 96 98 91 82 79 82 85 86 85 84 84 83 81 80 79 79 76 69 66 60 57 47 48
41 58 85 93 94 96 93 89 91 91 94 86 86 85 84 88 89 89 87 84 82 82 81 81 81 79 72 71 61 57 63 61
40 45 65 80 89 89 94 96 92 94 96 98 95 90 86 89 89 90 87 86 86 83 81 79 79 79 73 79 70 71 68 71
34 40 47 58 65 81 89 93 94 97 97 98 96 92 90 90 90 90 86 86 88 85 84 81 75 78 77 81 77 71 68 67
33 36 42 47 51 59 74 85 92 92 95 97 99 96 92 91 91 90 89 90 87 88 90 82 73 73 73 77 75 72 73 71
29 34 36 40 46 52 56 65 76 89 96 98 96 95 93 93 92 91 95 89 90 91 85 70 71 66 65 70 70 70 71 75
33 37 38 40 39 43 48 54 59 69 80 85 87 89 93 95 92 93 93 89 91 86 75 75 68 64 64 74 76 76 77 80
32 35 39 40 40 41 45 50 53 55 61 65 69 73 76 83 85 84 86 86 83 78 76 74 72 68 65 75 84 89 92 95
32 34 38 41 42 41 43 47 51 54 57 61 58 63 68 71 73 77 80 79 80 78 74 72 70 65 63 65 75 85 92 97

GFSFLT2_prec_cthk_072.txt.gz
RH
74 74 75 72 78 92 92 86 72 83 79 86 83 74 50 52 58 54 48 40 32 35 35 36 36 36 32 30 31 36 43 43
75 82 80 78 80 81 81 85 89 84 85 75 85 64 50 54 47 45 46 41 39 40 39 41 39 37 34 32 33 39 45 45
78 82 91 86 89 89 87 85 90 94 92 87 81 75 53 53 43 47 47 46 45 45 46 44 40 40 39 38 42 42 45 45
79 89 91 88 87 97 99 94 97 99 98 95 91 72 57 52 46 50 53 52 50 51 48 46 45 46 46 46 44 44 46 46
75 76 79 85 92 94 95 98 99 98 97 96 91 77 57 48 52 61 59 58 57 56 51 48 51 53 51 50 44 48 47 39
68 70 76 85 97 99 98 98 98 96 94 94 82 77 56 56 58 61 65 65 64 62 56 51 53 55 55 53 54 54 44 36
59 60 71 91 93 94 95 94 96 98 97 96 83 69 62 57 69 67 70 72 70 61 57 58 57 56 58 53 54 48 41 39
51 61 85 90 93 95 96 98 98 97 96 88 75 68 61 64 65 69 72 78 68 63 59 60 60 61 60 56 52 48 43 42
50 59 92 91 95 98 98 97 97 97 94 87 81 75 69 64 70 71 71 71 66 64 62 64 66 66 62 56 53 48 47 35
40 55 71 90 93 97 98 97 98 96 94 84 74 71 70 70 73 72 74 70 67 67 72 72 72 68 62 61 60 55 46 41
39 48 67 86 88 97 95 97 96 96 93 79 73 72 70 74 75 76 70 70 73 76 79 79 76 73 71 69 63 62 51 45
39 46 66 85 88 96 99 99 94 91 92 85 78 80 79 77 76 74 73 79 80 82 83 81 80 77 74 70 65 65 61 48
34 43 66 88 94 96 96 97 94 89 91 89 84 83 86 79 82 78 81 84 87 86 85 85 84 82 80 75 71 72 61 56
32 39 56 77 87 95 96 97 95 97 94 87 83 84 78 80 86 85 87 90 90 85 86 86 86 85 87 82 76 77 66 63
30 34 47 59 71 82 88 94 94 96 96 94 89 87 80 81 89 91 90 90 87 87 86 85 84 83 85 87 82 80 77 69
30 33 38 45 51 62 69 84 93 96 98 97 98 93 89 85 92 93 92 90 88 88 88 87 85 88 82 80 76 79 85 83
25 29 35 37 42 48 59 66 85 92 92 93 95 94 92 89 92 94 93 90 89 92 90 87 84 87 83 81 74 74 74 77
26 33 37 37 40 42 49 53 63 72 85 90 97 96 93 93 94 93 94 91 91 93 90 87 86 85 85 83 77 72 70 71
30 35 37 38 40 41 42 47 54 57 64 77 86 92 92 92 93 93 91 89 91 89 93 94 89 87 78 73 67 63 69 71
28 33 35 38 41 42 43 47 49 52 54 60 63 68 71 73 77 81 81 82 84 90 93 83 88 76 72 78 71 66 63 68